Weather History for Novato, CA

Change the Weather History Date:

Friday, August 16, 2013

  Actual Average (KAPC) Record (KAPC)
Temperature  
Mean Temperature 72 °F 66 °F  
Max Temperature 89 °F 80 °F 91 °F (2000)
Min Temperature 55 °F 52 °F 48 °F (2010)
Degree Days  
Heating Degree Days 0    
Month to date heating degree days  
Since 1 June heating degree days  
Since 1 July heating degree days  
Cooling Degree Days 7    
Month to date cooling degree days  
Year to date cooling degree days  
Since 1 June cooling degree days  
Growing Degree Days 22 (Base 50)    
Moisture  
Dew Point 58 °F    
Average Humidity 77    
Maximum Humidity 100    
Minimum Humidity 33    
Precipitation  
Precipitation 0.00 in - 0.00 in (2014)
Month to date precipitation  
Year to date precipitation  
Since 1 July precipitation  
Sea Level Pressure  
Sea Level Pressure 29.96 in    
Wind  
Wind Speed 5 mph (NE)    
Max Wind Speed 17 mph    
Max Gust Speed 22 mph    
Visibility 9 miles    
Events Rain    
T = Trace of Precipitation, MM = Missing Value Source: NWS Daily Summary

Daily Weather History Graph

Daily Weather History Graph

Search for Another Location

Airport:

Trip Planner

Search our weather history database for the weather conditions in past years. The results will help you decide how hot, cold, wet, or windy it might be!

Date:

Astronomy

Aug. 16, 2013 Rise Set
Actual Time 6:26 AM PDT 8:01 PM PDT
Civil Twilight 5:58 AM PDT 8:29 PM PDT
Nautical Twilight 5:24 AM PDT 9:03 PM PDT
Astronomical Twilight 4:48 AM PDT 9:39 PM PDT
Moon 4:24 PM PDT (8/16) 1:36 AM PDT (8/16)
Length of Visible Light 14h 31m
Length of Day
13h 35m
Waxing Gibbous, 76% of the Moon is Illuminated
Aug 16
Waxing Gibbous
Aug 20
Full
Aug 28
Last Quarter
Sep 5
New
Sep 12
First Quarter

Hourly Weather History & Observations

Time (PDT) Temp. Heat Index Dew Point Humidity Pressure Visibility Wind Dir Wind Speed Gust Speed Precip Events Conditions
12:15 AM 59.0 °F - 59.0 °F 100% 29.96 in 10.0 mi NE 5.8 mph - N/A   Clear
12:35 AM 57.2 °F - 57.2 °F 100% 29.96 in 10.0 mi NNE 5.8 mph - N/A   Clear
12:55 AM 57.2 °F - 57.2 °F 100% 29.96 in 10.0 mi North 4.6 mph - N/A   Clear
1:15 AM 57.2 °F - 57.2 °F 100% 29.96 in 10.0 mi North 5.8 mph - N/A   Clear
1:35 AM 57.2 °F - 57.2 °F 100% 29.95 in 10.0 mi North 4.6 mph - N/A   Clear
1:55 AM 57.2 °F - 57.2 °F 100% 29.96 in 10.0 mi NNE 4.6 mph - N/A   Clear
2:15 AM 57.2 °F - 57.2 °F 100% 29.95 in 10.0 mi North 5.8 mph - N/A   Clear
2:35 AM 57.2 °F - 57.2 °F 100% 29.95 in 10.0 mi North 3.5 mph - N/A   Clear
2:55 AM 57.2 °F - 57.2 °F 100% 29.95 in 10.0 mi North 5.8 mph - N/A   Clear
3:15 AM 57.2 °F - 57.2 °F 100% 29.95 in 10.0 mi Calm Calm - N/A   Mostly Cloudy
3:35 AM 57.2 °F - 57.2 °F 100% 29.95 in 10.0 mi Calm Calm - N/A   Scattered Clouds
3:55 AM 57.2 °F - 57.2 °F 100% 29.95 in 10.0 mi Calm Calm - N/A   Mostly Cloudy
4:15 AM 57.2 °F - 57.2 °F 100% 29.95 in 10.0 mi Calm Calm - N/A   Overcast
4:35 AM 57.2 °F - 57.2 °F 100% 29.95 in 9.0 mi Calm Calm - N/A   Overcast
4:55 AM 57.2 °F - 57.2 °F 100% 29.96 in 4.0 mi Calm Calm - N/A   Overcast
5:15 AM 57.2 °F - 57.2 °F 100% 29.96 in 1.0 mi NNW 3.5 mph - N/A   Overcast
5:35 AM 57.2 °F - 57.2 °F 100% 29.96 in - NW 3.5 mph - N/A   Overcast
5:55 AM 57.2 °F - 57.2 °F 100% 29.97 in - NNW 5.8 mph - N/A   Overcast
6:15 AM 57.2 °F - 57.2 °F 100% 29.97 in 3.0 mi North 5.8 mph - N/A   Overcast
6:35 AM 57.2 °F - 57.2 °F 100% 29.97 in 2.5 mi North 5.8 mph - N/A   Overcast
6:55 AM 57.2 °F - 57.2 °F 100% 29.97 in 10.0 mi North 5.8 mph - N/A   Overcast
7:15 AM 57.2 °F - 57.2 °F 100% 29.98 in 9.0 mi North 4.6 mph - N/A   Overcast
7:35 AM 59.0 °F - 59.0 °F 100% 29.98 in 10.0 mi North 3.5 mph - N/A   Overcast
7:55 AM 59.0 °F - 59.0 °F 100% 29.98 in 10.0 mi North 4.6 mph - N/A   Overcast
8:15 AM 59.0 °F - 59.0 °F 100% 29.99 in 10.0 mi Calm Calm - N/A   Overcast
8:35 AM 60.8 °F - 60.8 °F 100% 29.99 in 9.0 mi Calm Calm - N/A   Overcast
8:55 AM 62.6 °F - 62.6 °F 100% 29.99 in 10.0 mi ENE 3.5 mph - N/A   Overcast
9:15 AM 62.6 °F - 62.6 °F 100% 29.99 in - Calm Calm - N/A   Mostly Cloudy
9:35 AM 64.4 °F - 62.6 °F 94% 29.99 in - SE 3.5 mph - N/A   Unknown
9:55 AM 66.2 °F - 62.6 °F 88% 29.99 in - NE 3.5 mph - N/A   Unknown
10:15 AM 68.0 °F - 62.6 °F 83% 29.98 in - ENE 3.5 mph - N/A   Clear
10:35 AM 71.6 °F - 62.6 °F 73% 29.99 in - East 4.6 mph - N/A   Clear
10:55 AM 73.4 °F - 62.6 °F 69% 29.99 in - East 4.6 mph - N/A   Clear
11:15 AM 75.2 °F - 62.6 °F 65% 29.98 in - SE 4.6 mph - N/A   Clear
11:35 AM 77.0 °F - 62.6 °F 61% 29.98 in - SE 4.6 mph - N/A   Clear
11:55 AM 77.0 °F - 62.6 °F 61% 29.98 in - SE 4.6 mph - N/A   Clear
12:15 PM 80.6 °F 81.8 °F 62.6 °F 54% 29.97 in - SE 5.8 mph - N/A   Clear
12:35 PM 82.4 °F 83.4 °F 62.6 °F 51% 29.97 in - East 5.8 mph - N/A   Clear
12:55 PM 84.2 °F 85.0 °F 62.6 °F 48% 29.97 in - SE 9.2 mph - N/A Rain Light Rain
1:15 PM 84.2 °F 84.4 °F 60.8 °F 45% 29.97 in - ESE 4.6 mph - N/A Rain Light Rain
1:35 PM 86.0 °F 85.4 °F 59.0 °F 40% 29.96 in - SSW 11.5 mph 19.6 mph N/A Rain Light Rain
1:55 PM 89.6 °F 88.9 °F 59.0 °F 36% 29.96 in - NNW 8.1 mph - N/A   Clear
2:15 PM 86.0 °F 84.9 °F 57.2 °F 37% 29.96 in - WSW 11.5 mph - N/A   Clear
2:35 PM 86.0 °F 84.9 °F 57.2 °F 37% 29.96 in - SW 17.3 mph - N/A   Clear
2:55 PM 86.0 °F 84.9 °F 57.2 °F 37% 29.96 in - SW 16.1 mph 21.9 mph N/A   Clear
3:15 PM 86.0 °F 84.9 °F 57.2 °F 37% 29.95 in - WSW 15.0 mph - N/A   Clear
3:35 PM 84.2 °F 83.5 °F 57.2 °F 40% 29.95 in - SW 12.7 mph - N/A   Clear
3:55 PM 84.2 °F 83.5 °F 57.2 °F 40% 29.95 in - West 10.4 mph 17.3 mph N/A   Clear
4:15 PM 86.0 °F 84.2 °F 53.6 °F 33% 29.95 in - WSW 9.2 mph 18.4 mph N/A   Clear
4:35 PM 84.2 °F 83.0 °F 55.4 °F 37% 29.95 in - North 9.2 mph - N/A   Clear
4:55 PM 84.2 °F 82.8 °F 53.6 °F 35% 29.95 in - WSW 9.2 mph - N/A   Clear
5:15 PM 80.6 °F 80.8 °F 57.2 °F 45% 29.95 in - WSW 9.2 mph - N/A   Clear
5:35 PM 77.0 °F - 55.4 °F 47% 29.94 in - SE 4.6 mph - N/A   Clear
5:55 PM 77.0 °F - 55.4 °F 47% 29.94 in - SSW 6.9 mph 16.1 mph N/A   Clear
6:15 PM 77.0 °F - 53.6 °F 44% 29.94 in - SSE 3.5 mph - N/A   Clear
6:35 PM 75.2 °F - 55.4 °F 50% 29.94 in - South 5.8 mph - N/A   Clear
6:55 PM 75.2 °F - 53.6 °F 47% 29.94 in - SSE 5.8 mph - N/A   Clear
7:15 PM 71.6 °F - 55.4 °F 57% 29.94 in - SSW 6.9 mph - N/A   Clear
7:35 PM 68.0 °F - 55.4 °F 64% 29.94 in - South 6.9 mph - N/A   Clear
7:55 PM 66.2 °F - 55.4 °F 68% 29.95 in - East 9.2 mph - N/A   Clear
8:15 PM 66.2 °F - 55.4 °F 68% 29.95 in - ESE 6.9 mph - N/A   Clear
8:35 PM 64.4 °F - 55.4 °F 73% 29.95 in - ESE 6.9 mph - N/A   Unknown
8:55 PM 64.4 °F - 55.4 °F 73% 29.95 in 10.0 mi East 4.6 mph - N/A   Unknown
9:15 PM 60.8 °F - 55.4 °F 82% 29.96 in 10.0 mi NE 4.6 mph - N/A   Unknown
9:35 PM 59.0 °F - 53.6 °F 82% 29.96 in 10.0 mi Calm Calm - N/A   Unknown
9:55 PM 57.2 °F - 55.4 °F 94% 29.96 in 10.0 mi North 5.8 mph - N/A   Unknown
10:15 PM 57.2 °F - 57.2 °F 100% 29.96 in 10.0 mi North 4.6 mph - N/A   Unknown
10:35 PM 57.2 °F - 57.2 °F 100% 29.96 in 10.0 mi NNE 4.6 mph - N/A   Unknown
10:55 PM 57.2 °F - 57.2 °F 100% 29.96 in 10.0 mi NNE 6.9 mph - N/A   Unknown
11:15 PM 57.2 °F - 57.2 °F 100% 29.97 in 10.0 mi North 3.5 mph - N/A   Unknown
11:35 PM 55.4 °F - 55.4 °F 100% 29.97 in 10.0 mi Calm Calm - N/A   Unknown
11:55 PM 55.4 °F - 55.4 °F 100% 29.97 in 10.0 mi Calm Calm - N/A   Unknown